Regional Weather Roundup
Issued by NWS

Home | Current Version | Previous Version | Text Only | Print | Product List | Glossary Off
Versions: 1 2 3 4 5 6 7 8 9 10 11 12 13 14 15 16 17 18 19 20 21 22 23 24 25 26 27 28 29 30 31 32 33 34 35 36 37 38 39 40 41 42 43 44 45 46 47 48 49 50

000
ASUS43 KDMX 291001
RWRIA

WEATHER ROUNDUP FOR IOWA
NATIONAL WEATHER SERVICE DES MOINES IA
500 AM CDT SAT APR 29 2017

NOTE: "FAIR" INDICATES FEW OR NO CLOUDS BELOW 12,000 FEET WITH NO
SIGNIFICANT WEATHER AND/OR OBSTRUCTIONS TO VISIBILITY.

* - THESE STATIONS ARE NOT NWS STATIONS...THUS NOT UNDER NWS
QUALITY CONTROL.  THEY ALSO DO NOT REPORT WEATHER SUCH
AS PRECIPITATION OR FOG.

IAZ001>003-012>014-020>022-031>034-043>046-291100-
   NORTHWEST IOWA

CITY           SKY/WX    TMP DP  RH WIND       PRES   REMARKS
CARROLL *      CLOUDY    41  36  81 NE13      30.10R
DENISON *      CLOUDY    41  34  75 NE15      30.11R
LE MARS *      CLOUDY    39  28  65 NE10      30.14R WCI  32
ORANGE CITY *  CLOUDY    37  28  70 NE5       30.14R WCI  34
SHELDON *      CLOUDY    36  28  75 NE9       30.14R WCI  29
SIOUX CITY     MOCLDY    40  32  73 N9        30.12R WCI  34
SPENCER        PTCLDY    36  30  79 NE8       30.13R WCI  30
$$

IAZ055>058-069>071-079>083-090>094-291100-
   SOUTHWEST IOWA

CITY           SKY/WX    TMP DP  RH WIND       PRES   REMARKS
ATLANTIC *     CLOUDY    43  36  75 NE15G23   30.01F
AUDUBON *      PTCLDY    39  36  87 N15       30.04F WCI  31
CLARINDA *       N/A     45  39  81 NE14G22   30.00F
COUNCIL BLFS * CLOUDY    41  37  87 NE13G20   30.06S
CRESTON *      CLOUDY    43  37  81 NE22G29   30.00R
HARLAN  *      CLOUDY    43  36  75 NE16      30.10R
LAMONI         CLOUDY    43  40  89 NE15G28   29.98R
RED OAK *      CLOUDY    43  37  81 NE14G23   30.01R
SHENANDOAH *   CLOUDY    45  37  76 NE13G22   30.02R
$$

IAZ047>049-059>061-072>074-084-291100-
   CENTRAL IOWA

CITY           SKY/WX    TMP DP  RH WIND       PRES   REMARKS
AMES           CLOUDY    43  36  76 NE14G24   30.05F
ANKENY *       CLOUDY    43  36  75 NE16      30.05S
BOONE *        PTCLDY    41  36  81 NE16      30.04F
CHARITON *     CLOUDY    43  39  87 NE15G22   30.02R
DES MOINES     CLOUDY    45  34  65 NE17      30.02F
GRINNELL*      CLOUDY    42  37  82 NE13G18   30.05R
KNOXVILLE *    CLOUDY    45  37  76 NE16G23   30.02R
MARSHALLTOWN   MOCLDY    41  36  82 NE18      30.04F
NEWTON *       CLOUDY    43  36  75 NE16G23   30.03R
PELLA *        CLOUDY    44  38  80 NE9       30.05R
PERRY *          N/A     42  36  79 NE13      30.05F
$$

IAZ004>006-015-016-023>025-035-036-291100-
   NORTH CENTRAL IOWA

CITY           SKY/WX    TMP DP  RH WIND       PRES   REMARKS
ALGONA *       PTCLDY    34  32  93 NE7       30.14R WCI  28
CLARION *      CLOUDY    37  36  93 NE9       30.15R WCI  31
ESTHERVILLE    CLOUDY    33  30  88 N6        30.15R WCI  28
FORT DODGE *   CLOUDY    37  30  75 NE10      30.15R WCI  30
MASON CITY     CLOUDY    36  30  79 SE10      30.20R WCI  28
FOREST CITY *    N/A     37  28  70 N5        30.16R WCI  34
WEBSTER CITY * CLOUDY    39  34  81 NE12      30.09R WCI  32
IOWA FALLS *     N/A     40  34  80 NE9       30.11F WCI  33
$$

IAZ007>011-017>019-026>030-037>042-050>054-066-291100-
   NORTHEAST IOWA

CITY           SKY/WX    TMP DP  RH WIND       PRES   REMARKS
CEDAR RAPIDS   CLOUDY    44  39  82 NE15      30.06R
CHARLES CITY * PTCLDY    39  34  81 NE10      30.13F WCI  32
CLINTON *      CLOUDY    46  41  82 NE15      30.10R
DECORAH *      CLOUDY    37  32  81 E5        30.15F WCI  34
DUBUQUE        PTCLDY    43  37  79 NE14      30.09R
MONTICELLO *   CLOUDY    45  37  76 NE12G18   30.09R
OELWEIN *      CLOUDY    41  36  81 N14       30.09F
WATERLOO       CLOUDY    40  34  79 N12       30.09F WCI  33
$$

IAZ064-065-067-068-078-291100-
   EAST CENTRAL IOWA

CITY           SKY/WX    TMP DP  RH WIND       PRES   REMARKS
DAVENPORT      CLOUDY    46  41  82 NE17      30.09R
IOWA CITY      CLOUDY    46  39  76 NE15G23   30.09R
MUSCATINE *    CLOUDY    46  43  87 NE15      30.09R
QUAD CITIES    CLOUDY    48  41  76 NE18      30.08R
$$

IAZ062-063-075>077-085>089-095>099-291100-
   SOUTHEAST IOWA

CITY           SKY/WX    TMP DP  RH WIND       PRES   REMARKS
BURLINGTON     CLOUDY    48  47  96 NE12      30.04R FOG
FAIRFIELD *    CLOUDY    45  43  93 NE16G23   30.04R
FORT MADISON * CLOUDY    48  46  93 NE12G17   30.04R FOG
KEOKUK *       CLOUDY    48  46  93 NE9       30.02R FOG
OSKALOOSA *    CLOUDY    44  41  89 NE13G26   30.05R
OTTUMWA        CLOUDY    45  43  93 NE16G24   30.03R
WASHINGTON *   CLOUDY    45  45 100 NE16G23   30.08R
$$

ABBREVIATIONS USED IN REMARKS
   TC - TEMPERATURES IN CELSIUS
  WCI - WIND CHILL INDEX
   HX - HEAT INDEX
  VSB - VISIBILITY
$$




USA.gov is the U.S. government's official web portal to all federal, state and local government web resources and services.